Reflectivity
-20 -20 -20 -20 -20 -20 -20 -20 -20 -20 -20 -20 -20 -20 -20 -7 9 11 -15 8 -0 -1 -20 -20 -11 -20 -20
-20 -20 -20 -20 -20 -20 -20 -20 -20 -20 -20 -20 -20 -20 -20 -20 -20 6 14 14 15 10 6 -19 -20 -5 -1
-20 -20 -20 -20 -20 -20 -20 -20 -20 -20 -20 -20 -20 -20 -20 -20 -7 9 10 10 -20 2 4 5 -20 -20 -19
-20 -20 -20 -20 -20 -20 -20 -20 -20 -20 -20 -20 -20 -20 -20 -20 -16 -20 -7 -9 -1 -11 4 5 4 6 -19
-5 -20 -20 -20 -20 -20 -20 -20 -20 -20 -20 -20 -20 -20 -20 -20 -20 -20 -20 9 -16 -0 13 14 8 -16 5
-20 -1 -20 -20 -20 -20 -6 -20 -5 -20 -20 -20 -20 -20 -20 -20 -20 -3 4 7 2 1 9 13 -14 -20 -20
-15 -12 -20 -14 2 -20 -15 5 -8 -20 -20 -20 -20 -20 -20 -20 -20 -20 -20 -13 -12 9 9 -12 12 9 0
-20 -13 -0 -6 0 0 3 2 -7 -20 -20 -13 -20 -20 -20 -20 -20 -20 -14 14 15 10 -7 -12 -0 -20 -20
-20 -11 -20 -16 -15 -1 -8 3 -20 -18 -20 2 -20 -20 -15 -20 -20 -20 -17 -20 -20 -15 10 14 9 -20 -1
-20 -20 -20 -20 -7 -20 -2 5 4 -20 -20 6 -5 2 -20 -20 -20 -20 -20 -20 -20 -20 -20 10 15 12 -18
-20 -20 -20 -20 -20 -20 -20 -12 3 1 -20 7 -17 -16 8 6 -18 -20 -20 -20 -20 -20 -20 -1 11 1 4
-20 -20 -1 -11 -20 -9 -20 -20 -12 -11 -20 -19 3 8 6 -3 -12 -20 -20 -20 -20 -20 -20 -6 8 -8 -10
-1 -7 -2 -18 -20 -20 -20 -20 -20 -20 -20 1 5 -20 -14 4 4 0 1 -20 -20 -20 4 17 12 11 8
3 -1 -8 -17 -5 -20 -20 -20 -5 -19 -20 -20 -6 -7 -12 -20 4 -19 -20 3 -20 -20 -19 -17 -20 -20 5
-5 0 2 1 -20 -20 -11 -17 4 -11 -18 -20 -20 -15 1 4 5 -13 -1 2 -20 -20 -3 3 -15 -20 -20
-2 -7 -11 -20 -1 -20 -3 2 -0 -16 -3 -20 -15 -15 -20 -20 -20 -9 -1 1 -20 -20 4 12 -17 -20 -20
-20 -6 6 -12 1 -1 0 2 -4 -20 -20 -4 1 -10 -2 -20 -20 1 1 -13 -20 -20 -20 -20 -14 -20 -20
Wind_Speed
8 9 11 10 10 10 10 12 10 21 24 24 25 25 25 24 23 23 23 23 23 21 20 21 23 22 23
8 8 9 10 11 10 9 9 9 18 23 24 25 25 24 23 24 24 23 22 23 22 22 21 21 22 22
8 7 8 8 9 9 8 9 9 18 22 23 25 24 23 24 25 23 23 23 22 23 22 21 21 21 22
7 8 7 9 8 8 9 8 10 10 15 17 22 24 26 24 24 22 23 22 21 20 21 21 21 21 22
8 8 8 9 9 8 10 10 10 10 10 9 11 11 11 17 18 21 22 24 23 23 23 23 22 21 22
7 8 9 9 8 9 10 11 12 7 11 12 9 10 10 10 22 25 25 25 23 22 22 22 22 22 22
8 9 10 10 10 11 12 11 11 10 11 12 8 10 10 9 25 29 29 27 27 22 21 21 20 18 20
7 8 10 11 10 10 12 12 10 9 10 13 10 10 8 10 25 27 24 22 23 18 20 21 21 21 21
16 18 20 19 16 8 8 9 10 9 8 10 10 13 11 11 10 19 21 27 26 25 23 24 22 22 14
8 10 11 10 17 7 8 9 10 11 5 11 10 10 10 9 7 11 10 21 27 27 26 25 20 7 7
7 6 7 7 7 7 9 8 10 11 13 11 10 11 9 13 9 10 10 11 11 15 22 24 20 17 8
7 7 7 7 8 8 10 10 9 14 14 13 10 10 12 13 14 10 10 10 10 11 11 15 20 20 20
7 7 7 8 11 9 10 11 12 13 11 13 11 12 10 12 13 12 14 10 10 10 8 8 7 5 7
7 7 8 8 8 8 9 9 10 11 13 12 12 12 11 11 12 12 11 10 10 10 10 7 8 7 8
7 8 9 9 9 8 9 10 10 11 12 10 11 12 10 14 13 11 11 10 9 10 11 8 8 8 8
8 8 9 9 10 9 10 9 10 11 12 11 11 10 10 10 15 10 9 9 9 10 10 9 8 7 6
9 9 9 9 13 10 10 10 10 11 12 11 10 9 11 13 10 15 11 10 11 10 9 9 10 9 6
Wind_Direction
310 323 319 320 322 310 323 320 322 324 320 321 318 314 312 309 307 304 299 298 300 300 303 306 308 306 304
309 315 322 318 307 335 309 304 327 315 318 314 313 312 308 304 302 303 304 300 298 299 299 300 301 301 298
307 310 305 313 317 301 317 322 318 317 315 313 313 309 310 314 308 303 303 298 300 296 294 292 294 293 296
306 307 315 319 311 324 324 322 313 314 309 312 310 321 312 311 309 307 301 295 293 292 289 289 288 292 292
303 311 317 319 329 325 314 314 313 310 318 319 309 308 304 308 305 300 301 299 300 294 291 291 290 292 291
310 308 305 313 321 315 313 317 313 306 320 306 313 307 309 312 307 313 312 302 299 295 293 291 292 289 286
286 299 315 318 314 320 311 307 304 313 305 299 303 298 303 309 320 308 303 296 295 293 294 292 292 298 301
307 311 300 296 300 302 301 298 296 302 303 300 308 303 314 305 302 305 308 317 307 301 301 298 295 297 294
318 306 302 308 305 299 302 306 304 307 310 307 321 310 309 298 290 311 316 318 312 307 304 297 291 289 291
304 304 311 310 308 320 318 312 312 312 319 317 312 320 309 288 320 303 294 301 307 303 295 289 292 290 281
308 321 315 315 328 323 318 313 305 295 299 308 306 298 281 301 301 301 293 295 299 296 294 293 284 281 274
330 315 314 318 316 310 299 286 285 288 296 298 290 296 297 295 297 298 293 289 287 289 287 282 283 283 286
310 310 314 308 302 299 296 295 294 291 293 293 291 291 283 288 294 294 297 295 284 282 288 290 289 270 267
315 312 311 307 307 305 305 304 301 299 298 291 288 285 282 280 283 286 285 283 291 289 288 282 289 287 278
319 319 312 308 303 307 305 300 297 297 299 300 294 281 278 285 287 283 287 284 281 284 287 281 271 270 277
313 308 305 301 302 307 298 295 293 294 300 302 301 301 297 281 277 286 296 293 289 289 285 279 271 262 252
312 308 306 303 309 299 298 299 296 296 296 296 301 302 301 301 304 300 297 291 289 287 278 272 272 270 252